Location: Ertinghausen
(51.6624°N, 9.7874°E)
Time: 14:27:22
(UTC+00:00)

CZ-2C R/B - Pass Details

Date: 21 August 2024
Orbit: 703 x 903 km, 98.2° (Epoch: 14 September)

Event Time Altitude Azimuth Distance (km) Brightness Sun altitude
Rises 23:27:33 0° 32° (NNE) 3,302 7.2 -26.6°
Reaches altitude 10° 23:32:50 10° 77° (ENE) 2,431 5.7 -26.6°
Maximum altitude 23:33:17 10° 82° (E) 2,428 5.7 -26.6°
Drops below altitude 10° 23:33:45 10° 87° (E) 2,440 5.6 -26.6°
Enters shadow 23:35:07 - 101° (ESE) 2,557 5.6 -26.6°
